Location: Taipo
(41.0000°S, 175.9500°E)
Time: 10:41:06
(UTC+00:00)

Okean 2 - Pass Details

Date: 18 April 2024
Orbit: 539 x 556 km, 82.5° (Epoch: 24 May)

Event Time Altitude Azimuth Distance (km) Brightness Sun altitude
Rises 17:31:45 0° 195° (SSW) 2,776 6.7 -15.5°
Reaches altitude 10° 17:34:00 10° 201° (SSW) 1,874 5.8 -15.1°
Maximum altitude 17:37:56 44° 273° (W) 795 3.6 -14.3°
Drops below altitude 10° 17:41:49 10° 345° (NNW) 1,853 5.9 -13.6°
Sets 17:44:02 0° 351° (N) 2,741 6.8 -13.2°
